Regional Weather Roundup
Issued by NWS Jackson, KY

Home | Current Version | Previous Version | Graphics & Text | Print | Product List | Glossary On
Versions: 1 2 3 4 5 6 7 8 9 10 11 12 13 14 15 16 17 18 19 20 21 22 23 24 25 26 27
000
ASUS43 KJKL 251110
RWRJKL

EAST KENTUCKY HOURLY WEATHER ROUNDUP
NATIONAL WEATHER SERVICE JACKSON KY
700 AM EDT WED APR 25 2018

NOTE: "FAIR" INDICATES FEW OR NO CLOUDS BELOW 12,000 FEET WITH
NO SIGNIFICANT WEATHER AND/OR OBSTRUCTIONS TO VISIBILITY.

* THESE REPORTS ARE NOT UNDER NWS QUALITY CONTROL AND MAY NOT
  REPORT WEATHER SUCH AS PRECIPITATION AND FOG.

KYZ079-080-083-085-087-088-110-112-115-119-120-251200
...EASTERN KENTUCKY...

CITY           SKY/WX    TMP DP  RH WIND       PRES   REMARKS
JACKSON        CLOUDY    53  50  89 CALM      29.87R
LONDON         CLOUDY    53  52  96 NW5       29.89R
SOMERSET*      CLOUDY    52  52 100 W5        29.93R
MONTICELLO*    CLOUDY    54  52  93 NW8       29.94R
WILLIAMSBURG*  CLOUDY    54  54 100 CALM      29.90R
MIDDLESBORO*   CLOUDY    54  53  97 NW3       29.89R
HARLAN APT*    CLOUDY    53  52  99 CALM      29.88R
PIKE CO APT*   LGT RAIN  53  53 100 W7        29.85R
BIG SANDY APT* CLOUDY    54  54 100 NW7       29.86R
MOREHEAD APT*  CLOUDY    54  52  94 CALM      29.88S
ASHLAND*       CLOUDY    54  53  97 CALM      29.86R
$$

KYZ035-036-041-042-044-050-067-078-099-251200
...CENTRAL KENTUCKY...

CITY           SKY/WX    TMP DP  RH WIND       PRES   REMARKS
MT STERLING*   CLOUDY    52  52 100 NW5       29.90R
FLEMING/MASON* CLOUDY    53  53 100 NW5       29.89R
DANVILLE*      CLOUDY    52  50  93 NW6       29.92R
LEXINGTON      MOCLDY    53  50  89 NW8       29.90R
FRANKFORT      CLOUDY    54  50  86 NW5       29.90R
LOUISVILLE     CLOUDY    56  51  84 NW10      29.93R
LEBANON*       CLOUDY    54  54 100 NW5       29.93R FOG
GLASGOW*       CLOUDY    54  51  91 NW5       29.94R
BOWLING GREEN  CLOUDY    56  53  90 N5        29.96R
$$

KYZ091>093-OHZ055-061-077-WVZ005-015-034-035-042-251200
...SOUTHERN OHIO/WEST VIRGINIA...

CITY           SKY/WX    TMP DP  RH WIND       PRES   REMARKS
COVINGTON      CLOUDY    53  50  89 NW9       29.90R
COLUMBUS       CLOUDY    53  51  93 N5        29.85S FOG
DAYTON         FOG       50  50 100 NW12      29.91R VSB 1/2
WILMINGTON     CLOUDY    54  52  93 N12       29.87R
HUNTINGTON     CLOUDY    54  52  93 NW3       29.84R FOG
CHARLESTON     FOG       53  53 100 CALM      29.83R VSB 1
PINEVILLE*     CLOUDY    53  52  97 MISG      29.88R FOG
BECKLEY        CLOUDY    50  49  96 NW3       29.82S FOG
BLUEFIELD      LGT RAIN  48  47  96 CALM      29.83R FOG
LOGAN CO APT*  FOG       52  52 100 CALM      29.84R VSB 3/4
$$

VAZ002-007-008-TNZ017-027-036-066-071-251200
...SOUTHWEST VIRGINIA/EAST TENNESSEE...

CITY           SKY/WX    TMP DP  RH WIND       PRES   REMARKS
WISE*          CLOUDY    50  50 100 NW8       29.88R
JONESVILLE*    CLOUDY    54  54 100 CALM      29.90R
ABINGDON*      CLOUDY    55  53  93 NW7       29.85R
BRISTOL        CLOUDY    54  53  97 W5        29.85R
MORRISTOWN*    CLOUDY    55  54  94 W5        29.88R
SEVIERVILLE*   CLOUDY    55  54  94 SW3       29.89R
KNOXVILLE      CLOUDY    55  54  96 SW5       29.88R
LAFOLLETTE*    CLOUDY    55  52  88 CALM      29.92S
OAK RIDGE      MOCLDY    55  54  96 SE3       29.90R
CROSSVILLE     CLOUDY    51  49  92 NW7       29.92R
NASHVILLE      CLOUDY    57  52  83 NW10      29.97R
$$

...KEY TO REMARKS...
VSB - VISIBILITY IN MILES
WCI - WIND CHILL INDEX
HX  - HEAT INDEX

$$




USA.gov is the U.S. government's official web portal to all federal, state and local government web resources and services.